CAPE
4 1 2 0 0 0 0 0 0 0 0 0 0 0 0 0 0 0 0 0 0 0 0 0 0 0 0 0 0 0 0 0 0 0 0 0 0 0 0 0 0 0 0 0 0
3 1 2 1 0 0 0 0 0 0 0 0 0 0 0 0 0 0 0 0 0 0 0 0 0 0 0 0 0 0 0 0 0 0 0 0 0 0 0 0 0 0 0 0 0
4 1 0 2 0 1 0 0 0 0 0 0 0 0 0 0 0 0 0 0 0 0 0 0 0 0 0 0 0 0 0 0 0 0 0 0 0 0 0 0 0 0 0 0 0
8 1 1 0 1 0 0 1 0 0 0 0 0 0 0 0 0 0 0 0 0 0 0 0 0 0 0 0 0 0 0 0 0 0 0 0 0 0 0 0 0 0 0 0 0
7 3 0 0 0 0 0 0 0 0 0 0 0 0 0 0 0 0 0 0 0 0 0 0 0 0 0 0 0 0 0 0 0 0 0 0 0 0 0 0 0 0 0 0 0
6 5 1 0 0 0 0 0 0 0 0 0 0 0 0 0 0 0 0 0 0 0 0 0 0 0 0 0 0 0 0 0 0 0 0 0 0 0 0 0 0 0 0 0 0
3 5 2 0 0 0 0 0 0 0 0 0 0 0 0 0 0 0 0 0 0 0 0 0 0 0 0 0 0 0 0 0 0 0 0 0 0 0 0 0 0 0 0 0 0
3 0 3 0 0 0 0 0 0 0 0 0 0 0 0 0 0 0 0 0 0 0 0 0 0 0 0 0 0 0 0 0 0 0 0 0 0 0 0 0 0 0 0 0 0
3 1 2 0 0 0 0 0 0 0 0 0 0 0 0 0 0 0 0 0 0 0 0 0 0 0 0 0 0 9 0 2 0 0 0 0 0 0 0 0 0 0 0 0 0
2 2 2 0 0 0 0 0 0 0 0 0 0 0 0 0 0 0 0 0 0 0 0 0 0 0 0 1 0 0 0 0 0 0 0 0 0 0 0 0 0 0 0 0 0
2 1 1 0 0 0 0 0 0 0 0 0 0 0 0 0 0 0 0 0 0 0 0 0 0 0 0 0 0 0 0 2 5 6 0 0 0 0 0 0 0 0 0 0 0
1 1 1 0 0 0 0 0 0 0 0 0 0 0 0 0 0 0 0 0 0 0 0 0 0 0 0 0 0 1 6 15 18 8 0 0 0 0 0 0 0 0 0 0 0
0 0 0 0 0 0 0 0 0 0 0 0 0 0 0 0 0 0 0 0 0 0 0 0 0 0 0 0 0 4 14 18 4 0 0 12 13 37 2 0 0 0 0 0 0
0 0 0 1 0 0 0 0 0 0 3 0 0 0 0 0 0 0 0 0 0 0 0 0 0 0 0 0 0 1 4 3 1 5 14 31 33 129 49 4 0 0 0 0 0
0 0 0 1 0 0 0 0 0 0 18 0 0 0 0 0 0 0 0 0 0 0 0 0 0 0 0 0 0 0 2 1 3 13 26 85 122 212 30 7 9 5 9 1 66
0 0 0 0 0 0 0 0 0 7 2 0 0 0 0 0 0 0 0 0 0 0 0 0 0 0 0 0 0 7 18 14 6 62 153 187 42 96 136 7 4 0 4 18 153
0 0 0 0 0 0 0 0 8 0 0 0 0 0 0 0 0 0 0 0 0 0 0 0 0 0 0 0 0 8 41 22 37 124 336 87 135 169 90 0 0 0 12 13 97
0 0 0 0 0 0 0 0 0 0 0 0 0 0 0 0 0 0 0 0 1 0 0 0 0 1 0 0 0 1 26 42 37 53 103 40 64 142 132 16 1 3 10 43 150
0 0 0 0 0 0 0 0 0 0 0 0 0 0 0 0 0 0 0 0 0 0 0 1 0 0 0 0 0 6 25 41 54 69 79 140 168 210 21 21 7 4 26 114 191
0 0 0 0 0 0 0 0 0 0 0 0 0 0 0 0 0 0 0 0 0 0 0 1 5 0 0 0 0 14 27 38 109 63 70 55 105 182 98 95 110 56 106 146 254
0 0 0 0 0 0 0 0 0 0 0 0 0 0 0 0 0 0 0 0 2 1 7 5 19 0 7 5 8 42 58 56 81 93 113 88 74 101 36 25 66 114 168 145 162
0 0 0 0 0 0 0 0 0 0 0 0 0 0 0 0 0 0 0 8 4 11 5 5 20 8 0 0 0 8 32 61 51 66 84 82 26 55 8 16 35 30 73 178 238
0 0 0 0 0 0 0 0 0 0 0 0 0 0 0 1 4 0 0 1 1 7 20 20 19 34 3 5 14 23 46 55 84 96 61 101 2 4 26 42 39 79 18 67 129
0 0 0 0 0 0 0 0 0 0 0 0 0 0 0 5 16 26 20 10 2 5 19 8 22 49 27 18 16 16 22 41 101 96 85 69 31 20 26 43 56 69 34 36 11
0 0 0 0 0 0 0 0 0 0 0 0 0 0 0 5 20 15 16 7 8 9 9 76 50 51 28 22 30 23 11 5 28 38 113 13 33 31 38 47 81 40 30 26 11
0 0 0 0 0 0 0 0 0 0 0 1 6 7 3 16 26 44 43 23 28 3 8 26 32 52 51 25 17 7 6 3 7 2 3 17 21 38 62 38 18 45 11 17 42
0 0 0 0 0 0 0 0 0 0 0 1 0 2 5 8 10 6 8 6 9 8 12 65 44 36 9 45 46 5 0 9 0 1 4 14 57 28 64 37 40 29 22 14 32
CIN
-0 -0 -0 -0 -0 -0 -0 -0 -0 -0 -0 -0 -0 -0 -0 -0 -0 -0 -0 -0 -0 -0 -0 -0 -0 -0 -0 -0 -0 -0 -0 -0 -0 -0 -0 -0 -0 -0 -0 -0 -0 -0 -0 -0 -0
-0 -0 -0 -0 -0 -0 -0 -0 -0 -0 -0 -0 -0 -0 -0 -0 -0 -0 -0 -0 -0 -0 -0 -0 -0 -0 -0 -0 -0 -0 -0 -0 -0 -0 -0 -0 -0 -0 -0 -0 -0 -0 -0 -0 -0
-0 -0 -0 -0 -0 -0 -0 -0 -0 -0 -0 -0 -0 -0 -0 -0 -0 -0 -0 -0 -0 -0 -0 -0 -0 -0 -0 -0 -0 -0 -0 -0 -0 -0 -0 -0 -0 -0 -0 -0 -0 -0 -0 -0 -0
-0 -0 -0 -0 -0 -0 -0 -0 -0 -0 -0 -0 -0 -0 -0 -0 -0 -0 -0 -0 -0 -0 -0 -0 -0 -0 -0 -0 -0 -0 -0 -0 -0 -0 -0 -0 -0 -0 -0 -0 -0 -0 -0 -0 -0
-0 -0 -0 -0 -0 -0 -0 -0 -0 -0 -0 -0 -0 -0 -0 -0 -0 -0 -0 -0 -0 -0 -0 -0 -0 -0 -0 -0 -0 -0 -0 -0 -0 -0 -0 -0 -0 -0 -0 -0 -0 -0 -0 -0 -0
-0 -0 -0 -0 -0 -0 -0 -0 -0 -0 -0 -0 -0 -0 -0 -0 -0 -0 -0 -0 -0 -0 -0 -0 -0 -0 -0 -0 -0 -0 -0 -0 -0 -0 -0 -0 -0 -0 -0 -0 -0 -0 -0 -0 -0
-0 -0 -0 -0 -0 -0 -0 -0 -0 -0 -0 -0 -0 -0 -0 -0 -0 -0 -0 -0 -0 -0 -0 -0 -0 -0 -0 -0 -0 -0 -0 -0 -0 -0 -0 -0 -0 -0 -0 -0 -0 -0 -0 -0 -0
-0 -0 -0 -0 -0 -0 -0 -0 -0 -0 -0 -0 -0 -0 -0 -0 -0 -0 -0 -0 -0 -0 -0 -0 -0 -0 -0 -0 -0 -0 -0 -0 -0 -0 -0 -0 -0 -0 -0 -0 -0 -0 -0 -0 -0
-0 -0 -0 -0 -0 -0 -0 -0 -0 -0 -0 -0 -0 -0 -0 -0 -0 -0 -0 -0 -0 -0 -0 -0 -0 -0 -0 -0 -0 -0 -0 -0 -0 -0 -0 -0 -0 -0 -0 -0 -0 -0 -0 -0 -0
-0 -0 -0 -0 -0 -0 -0 -0 -0 -0 -0 -0 -0 -0 -0 -0 -0 -0 -0 -0 -0 -0 -0 -0 -0 -0 -0 -0 -0 -0 -0 -0 -0 -0 -0 -0 -0 -0 -0 -0 -0 -0 -0 -0 -0
-0 -0 -0 -0 -0 -0 -0 -0 -0 -0 -0 -0 -0 -0 -0 -0 -0 -0 -0 -0 -0 -0 -0 -0 -0 -0 -0 -0 -0 -0 -0 -0 -0 -0 -0 -0 -0 -0 -0 -0 -0 -0 -0 -0 -0
-0 -0 -0 -0 -0 -0 -0 -0 -0 -0 -0 -0 -0 -0 -0 -0 -0 -0 -0 -0 -0 -0 -0 -0 -0 -0 -0 -0 -0 -0 -0 -0 -0 -0 -0 -0 -0 -0 -0 -0 -0 -0 -0 -0 -0
-0 -0 -0 -0 -0 -0 -0 -0 -0 -0 -0 -0 -0 -0 -0 -0 -0 -0 -0 -0 -0 -0 -0 -0 -0 -0 -0 -0 -0 -0 -0 -0 -0 -0 -0 -2 -45 -43 -28 -0 -0 -0 -0 -0 -0
-0 -0 -0 -0 -0 -0 -0 -0 -0 -0 -0 -0 -0 -0 -0 -0 -0 -0 -0 -0 -0 -0 -0 -0 -0 -0 -0 -0 -0 -0 -0 -0 -0 -0 -21 -14 -53 -0 -22 -116 -0 -0 -0 -0 -0
-0 -0 -0 -0 -0 -0 -0 -0 -0 -0 -18 -0 -0 -0 -0 -0 -0 -0 -0 -0 -0 -0 -0 -0 -0 -0 -0 -0 -0 -0 -0 -0 -0 -0 -0 -9 -0 -0 -13 -0 -1 -0 -1 -0 -0
-0 -0 -0 -0 -0 -0 -0 -0 -0 -1 -0 -0 -0 -0 -0 -0 -0 -0 -0 -0 -0 -0 -0 -0 -0 -0 -0 -0 -0 -0 -0 -0 -1 -7 -0 -0 -3 -4 -0 -0 -0 -0 -0 -1 -1
-0 -0 -0 -0 -0 -0 -0 -0 -0 -0 -0 -0 -0 -0 -0 -0 -0 -0 -0 -0 -0 -0 -0 -0 -0 -0 -0 -0 -0 -0 -0 -0 -1 -5 -0 -29 -0 -0 -2 -0 -0 -0 -0 -0 -2
-0 -0 -0 -0 -0 -0 -0 -0 -0 -0 -0 -0 -0 -0 -0 -0 -0 -0 -0 -0 -0 -0 -0 -0 -0 -0 -0 -0 -0 -0 -0 -0 -0 -0 -0 -19 -4 -0 -0 -1 -0 -0 -0 -1 -0
-0 -0 -0 -0 -0 -0 -0 -0 -0 -0 -0 -0 -0 -0 -0 -0 -0 -0 -0 -0 -0 -0 -0 -0 -0 -0 -0 -0 -0 -0 -0 -0 -0 -0 -0 -1 -1 -0 -13 -12 -1 -0 -0 -0 -1
-0 -0 -0 -0 -0 -0 -0 -0 -0 -0 -0 -0 -0 -0 -0 -0 -0 -0 -0 -0 -0 -0 -0 -0 -0 -0 -0 -0 -0 -0 -0 -0 -0 -0 -0 -0 -0 -0 -10 -9 -0 -1 -0 -1 -0
-0 -0 -0 -0 -0 -0 -0 -0 -0 -0 -0 -0 -0 -0 -0 -0 -0 -0 -0 -0 -0 -0 -0 -0 -0 -0 -0 -0 -0 -0 -1 -1 -2 -0 -0 -0 -0 -4 -2 -14 -10 -0 -1 -2 -1
-0 -0 -0 -0 -0 -0 -0 -0 -0 -0 -0 -0 -0 -0 -0 -0 -0 -0 -0 -0 -2 -0 -0 -0 -0 -0 -0 -0 -0 -0 -0 -1 -2 -0 -1 -0 -21 -0 -7 -0 -3 -23 -11 -2 -0
-0 -0 -0 -0 -0 -0 -0 -0 -0 -0 -0 -0 -0 -0 -0 -0 -0 -0 -0 -0 -0 -0 -0 -0 -0 -0 -0 -0 -2 -0 -0 -0 -0 -1 -0 -0 -0 -0 -1 -1 -0 -1 -12 -0 -6
-0 -0 -0 -0 -0 -0 -0 -0 -0 -0 -0 -0 -0 -0 -0 -0 -0 -0 -0 -0 -0 -0 -8 -9 -0 -0 -0 -11 -0 -0 -0 -0 -6 -5 -0 -0 -0 -0 -0 -0 -0 -0 -4 -1 -5
-0 -0 -0 -0 -0 -0 -0 -0 -0 -0 -0 -0 -0 -0 -0 -0 -0 -0 -0 -0 -0 -0 -0 -0 -0 -0 -0 -0 -0 -0 -0 -0 -0 -0 -8 -0 -0 -0 -0 -1 -0 -0 -0 -0 -1
-0 -0 -0 -0 -0 -0 -0 -0 -0 -0 -0 -0 -0 -0 -0 -0 -0 -0 -0 -0 -0 -0 -0 -0 -0 -0 -0 -0 -0 -0 -0 -0 -0 -0 -0 -0 -0 -1 -1 -0 -10 -0 -2 -0 -0
-0 -0 -0 -0 -0 -0 -0 -0 -0 -0 -0 -0 -0 -0 -0 -0 -0 -0 -0 -0 -0 -0 -0 -0 -0 -1 -1 -0 -0 -0 -0 -32 -0 -0 -0 -0 -0 -1 -0 -0 -0 -0 -1 -0 -0
Wind_Speed
12 10 9 8 8 8 9 10 10 10 11 12 13 13 15 15 16 9 12 6 8 12 11 13 8 4 8 5 9 8 11 13 14 6 8 3 4 8 2 11 15 17 17 17 16
13 11 9 8 8 8 9 10 10 10 10 10 11 13 15 16 9 11 4 3 8 14 10 7 2 5 9 7 5 10 11 14 12 12 10 10 9 10 9 12 15 15 16 16 13
14 12 9 8 8 8 9 9 10 10 11 11 11 12 14 15 7 13 5 4 8 15 8 7 9 10 11 4 5 7 12 15 8 6 9 13 15 15 14 15 13 13 13 13 14
15 13 10 8 8 7 8 9 10 11 11 11 10 11 11 10 3 8 7 5 11 15 10 6 4 10 8 7 2 12 14 9 13 11 11 15 16 18 18 17 15 15 17 15 13
16 14 10 9 8 8 8 9 10 12 12 12 12 9 9 5 11 10 7 11 15 7 6 8 7 9 8 6 8 15 12 9 13 14 15 15 18 20 19 17 15 13 18 16 13
17 16 12 10 9 9 9 9 10 11 13 14 14 12 10 8 3 3 3 8 4 7 4 8 8 8 12 10 9 14 11 15 16 16 12 13 16 16 17 11 11 11 15 17 14
19 17 14 11 10 10 9 10 10 11 12 14 13 9 5 7 1 1 5 3 2 5 10 8 9 10 12 14 5 12 17 18 17 10 8 11 16 24 16 3 11 12 13 14 15
20 20 16 13 11 11 10 10 11 11 12 13 12 12 3 3 6 9 1 9 6 5 5 8 11 12 11 11 16 17 17 13 9 7 14 7 15 16 5 8 11 11 10 14 17
21 21 18 16 13 12 10 9 7 9 11 11 9 12 6 8 5 6 5 8 7 9 8 7 12 6 13 15 14 14 11 10 15 10 7 14 19 18 11 12 15 17 17 16 17
22 21 18 16 14 11 10 6 3 7 10 10 9 9 5 10 6 6 3 5 10 9 14 14 8 11 16 10 11 17 19 18 18 16 17 20 23 19 20 19 21 21 18 16 18
23 22 20 17 14 10 9 7 8 9 15 8 6 5 6 8 5 3 8 7 11 12 15 7 10 12 14 11 14 15 18 21 20 18 17 20 21 20 18 20 20 21 19 17 19
24 23 21 18 13 9 8 7 7 8 9 6 2 5 4 3 6 5 6 6 11 13 12 13 10 7 7 12 15 16 19 21 17 13 16 21 23 21 21 19 20 20 19 18 18
24 23 22 19 13 7 5 6 9 5 8 9 2 6 2 7 7 5 8 9 11 12 11 10 13 8 12 15 17 15 16 15 18 18 21 25 21 22 5 8 12 13 14 15 17
27 24 22 20 4 5 2 7 7 2 8 13 8 4 6 9 6 2 4 10 11 12 11 9 6 13 12 14 8 15 15 17 18 18 16 17 20 16 12 8 11 12 11 15 13
26 26 22 9 12 6 8 8 4 5 6 6 6 5 7 6 7 7 1 7 11 12 8 14 14 12 12 9 10 16 16 20 21 19 19 22 15 10 8 12 8 8 9 8 9
28 25 22 6 10 3 7 1 6 9 2 4 1 4 8 8 4 5 7 9 9 12 14 15 6 6 8 13 13 16 18 20 26 18 16 13 5 10 11 12 9 8 9 8 10
30 24 14 8 8 8 5 7 8 6 5 3 3 10 13 11 8 6 9 10 7 7 10 17 4 2 5 12 11 16 17 12 13 5 14 6 14 15 13 6 10 13 12 11 12
33 23 9 6 5 5 7 9 10 4 7 7 9 14 14 6 5 7 13 12 7 7 12 9 12 4 1 14 16 15 9 7 9 14 20 27 18 17 12 10 5 10 11 12 13
32 5 8 4 5 5 9 7 6 9 5 9 14 12 7 6 10 12 10 12 5 4 7 11 8 23 20 6 6 5 10 8 17 20 18 18 19 18 11 10 4 7 9 12 11
10 8 2 6 1 6 10 12 7 0 7 9 13 6 10 11 10 9 10 0 4 3 6 9 19 14 5 9 19 13 9 10 6 8 14 15 22 9 13 17 17 6 8 8 15
7 6 7 6 4 8 9 8 9 4 4 8 11 14 15 13 10 12 8 6 3 7 8 13 15 15 18 17 15 7 12 6 8 11 15 17 10 9 19 14 15 20 16 10 17
7 7 5 7 9 2 6 7 2 9 5 10 8 13 13 12 13 12 12 6 0 9 11 16 10 16 20 23 14 10 15 2 3 11 8 14 21 24 7 10 14 14 18 20 22
8 8 4 7 7 4 8 11 8 10 9 5 9 9 10 11 8 10 10 5 7 13 5 11 7 13 12 6 7 10 12 12 15 12 18 17 16 16 20 16 19 13 14 20 21
7 6 1 2 1 5 10 12 6 6 10 12 10 13 13 15 14 12 14 9 7 10 5 3 14 19 17 19 20 22 23 21 17 8 17 22 31 26 24 22 20 17 15 18 17
4 4 5 7 7 11 11 13 16 13 7 7 8 12 12 15 16 18 20 13 17 21 21 14 19 22 24 24 25 27 26 26 25 26 24 24 28 22 19 19 15 16 18 14 13
6 6 7 13 15 13 9 11 13 12 11 13 14 16 16 17 20 21 23 21 20 19 20 11 18 19 26 23 25 29 26 29 28 27 26 26 21 18 14 12 12 16 14 17 20
6 7 6 8 12 11 12 12 10 13 14 10 13 16 17 19 19 21 21 22 23 24 22 18 14 7 17 22 22 20 24 12 13 12 15 16 17 16 20 13 17 15 16 19 15
Wind_Direction
3 358 353 348 341 332 326 324 323 325 328 331 333 327 320 319 302 204 48 23 331 303 292 261 232 258 242 245 265 268 264 259 272 242 271 11 279 290 198 286 290 281 279 292 313
2 358 350 348 338 330 322 320 318 317 315 317 319 319 319 328 276 71 82 294 298 299 305 330 323 245 241 255 243 260 274 281 28 348 316 315 297 284 288 263 263 271 271 266 269
0 356 353 346 338 330 321 316 310 303 302 306 308 314 314 314 255 69 154 259 288 287 288 282 268 273 268 243 232 278 267 321 317 303 312 295 284 276 264 267 263 276 289 308 297
3 359 354 344 333 323 320 312 305 301 295 294 298 302 313 255 36 67 159 240 267 273 294 295 284 257 272 264 168 277 276 281 291 306 286 278 286 282 275 273 284 284 283 283 280
6 3 351 339 326 321 313 308 303 297 296 293 291 294 277 137 79 121 179 216 249 280 349 330 336 321 282 325 290 260 271 301 286 283 277 282 274 277 277 273 269 260 268 270 268
5 358 348 334 321 313 308 300 295 294 291 289 295 300 238 79 96 130 229 240 4 346 348 349 345 347 283 295 277 322 290 286 278 275 281 276 278 276 270 259 249 254 263 270 268
2 356 351 337 321 310 304 297 289 287 283 282 289 286 37 65 320 223 208 332 348 338 327 356 327 297 324 282 338 285 280 271 259 248 274 286 279 251 261 323 271 252 255 264 275
359 354 345 337 322 311 304 297 284 273 272 275 291 281 74 99 323 232 249 254 198 274 295 315 319 287 268 312 271 245 260 276 146 208 250 248 275 291 174 239 256 251 264 269 273
354 353 344 338 326 312 305 297 271 255 247 273 257 226 92 140 252 343 267 302 327 270 249 264 251 288 286 251 272 198 270 289 301 292 283 257 277 294 280 276 267 263 262 266 262
350 348 343 337 328 306 294 270 233 255 224 242 269 252 141 357 343 302 266 277 293 301 274 214 272 265 238 257 319 325 310 301 299 300 301 287 279 272 276 275 272 270 268 255 265
347 344 342 338 330 304 281 208 210 198 212 323 22 336 13 344 223 342 360 297 259 263 262 314 272 303 353 325 308 295 283 284 287 289 295 286 286 284 275 265 265 268 263 262 262
344 341 339 335 324 316 272 7 18 333 288 192 285 262 238 331 270 29 324 285 318 296 303 282 276 25 323 293 284 279 279 278 289 303 309 293 286 287 272 266 264 267 272 264 267
341 339 337 332 326 276 311 18 325 309 256 161 242 278 338 269 315 325 323 322 311 295 314 306 297 5 291 290 283 290 293 312 318 306 284 271 271 272 244 257 270 245 265 278 276
337 336 333 327 290 342 217 343 307 296 257 147 198 137 256 323 238 238 295 319 294 304 330 277 347 308 295 293 307 298 337 314 297 293 291 319 290 281 258 271 263 283 276 252 272
334 331 326 320 317 303 357 336 353 220 262 122 134 66 265 268 323 137 183 293 302 321 289 310 306 304 296 318 321 293 309 297 279 272 277 270 250 281 304 284 296 251 238 295 281
331 328 328 205 229 338 315 354 239 231 188 151 167 283 299 317 270 284 274 252 263 288 269 263 296 297 298 313 271 274 286 295 273 251 246 301 312 300 319 345 322 292 266 280 292
327 324 309 303 321 343 306 239 245 256 120 94 316 314 311 298 287 292 307 293 286 310 325 312 282 76 253 295 306 314 308 311 314 170 255 198 294 310 333 328 314 316 282 243 272
322 318 200 276 316 308 254 256 272 63 316 11 303 303 280 360 295 285 300 278 176 269 298 314 315 177 30 288 307 305 307 280 312 310 315 315 294 288 305 319 270 269 283 301 273
311 191 240 22 324 281 271 261 309 359 15 319 310 267 258 194 255 299 270 289 309 299 282 312 280 322 294 307 293 309 276 294 281 284 277 274 274 276 39 277 300 280 255 258 285
317 283 151 321 312 262 258 261 296 86 310 293 283 281 291 315 303 291 308 280 256 235 290 293 299 298 290 259 266 246 291 296 239 279 303 304 309 329 348 335 322 294 262 312 299
260 278 96 317 242 241 249 323 337 2 304 278 288 290 291 298 292 294 280 289 249 298 293 290 272 275 284 274 297 240 235 216 299 276 291 294 286 354 332 319 1 341 343 317 331
293 286 54 322 253 206 291 16 24 289 232 253 280 275 279 296 288 280 273 259 105 318 293 292 294 288 283 282 271 269 276 219 206 278 259 287 281 284 314 298 319 319 310 316 319
300 289 108 300 285 290 338 293 245 281 277 272 274 277 293 285 286 271 272 307 291 297 302 353 270 302 293 184 157 237 230 234 279 283 260 280 278 289 295 296 300 307 302 294 309
283 300 198 149 65 326 326 291 281 195 282 271 275 290 278 272 257 259 252 264 257 244 254 266 263 258 265 278 295 289 278 273 265 221 257 257 279 289 296 297 313 304 308 313 313
265 360 27 305 317 329 290 286 289 284 205 261 277 255 287 291 282 280 281 266 290 289 272 232 254 264 274 281 283 287 291 283 272 265 263 279 277 290 300 292 313 295 299 304 302
317 343 348 292 282 280 262 269 294 294 296 273 284 287 294 288 291 287 286 291 295 282 277 227 254 278 276 291 290 276 272 268 272 273 270 272 288 283 287 292 268 303 294 299 307
8 301 268 292 278 266 277 297 298 309 293 280 289 289 285 293 303 297 292 284 273 275 275 263 256 260 267 281 297 287 274 287 314 302 288 273 286 307 296 316 316 311 285 301 319